Tracking 32523 objects as of 12-Dec-2025
HD Live streaming from Space Station
objects crossing your sky now

ONEWEB-0319

Track ONEWEB-0319 now!
10-day predictions
ONEWEB-0319 is classified as:


NORAD ID: 49105
Int'l Code: 2021-075AG
Perigee: 1,199.5 km
Apogee: 1,202.2 km
Inclination: 87.9 °
Period: 109.3 minutes
Semi major axis: 7571 km
RCS: Unknown
Launch date: August 21, 2021
Source: United Kingdom (UK)
Launch site: TYURATAM MISSILE AND SPACE COMPLEX (TTMTR)
Your satellite tracking list
Your tracking list is empty




NASA's NSSDC Master Catalog

Two Line Element Set (TLE):
1 49105U 21075AG  25346.14261353  .00000008  00000-0 -12984-4 0  9996
2 49105  87.9095  43.0658 0001778 116.2958 243.8356 13.17649748208977
Source of the keplerian elements: AFSPC